Mankato, MN

3:23 AM CDT on August 26, 2019 (GMT -0500)
Mankato Regional

Weather History for KMKT - May, 2019

Change the Weather History Date:

Thursday, May 9, 2019

  Actual Average Record
Temperature  
Mean Temperature 43 °F -  
Max Temperature 52 °F 63 °F 91 °F (2004)
Min Temperature 35 °F 44 °F 35 °F (1999)
Degree Days  
Heating Degree Days 22    
Moisture  
Dew Point 35 °F    
Average Humidity 75    
Maximum Humidity 97    
Minimum Humidity 56    
Precipitation  
Precipitation 0.00 in - - ()
Sea Level Pressure  
Sea Level Pressure 29.94 in    
Wind  
Wind Speed 19 mph (NNW)    
Max Wind Speed 28 mph    
Max Gust Speed 32 mph    
Visibility 10 miles    
Events Rain    
Averages and records for this station are not official NWS values.
T = Trace of Precipitation, MM = Missing Value Source: NWS Daily Summary

Daily Weather History Graph

Daily Weather History Graph

Search for Another Location

Airport or City:

Astronomy

May. 09, 2019 Rise Set
Actual Time 5:56 AM CDT 8:28 PM CDT
Civil Twilight 5:23 AM CDT 9:01 PM CDT
Nautical Twilight 4:42 AM CDT 9:42 PM CDT
Astronomical Twilight 3:56 AM CDT 10:29 PM CDT
Moon 9:48 AM CDT (5/9) 12:32 AM CDT (5/9)
Length of Visible Light 15h 38m
Length of Day
14h 32m
Waxing Crescent, 25% of the Moon is Illuminated
May 9
Waxing Crescent
May 11
First Quarter
May 18
Full
May 26
Last Quarter
Jun 3
New

Hourly Weather History & Observations

Time (CDT) Temp. Windchill Dew Point Humidity Pressure Visibility Wind Dir Wind Speed Gust Speed Precip Events Conditions
12:56 AM 36.0 °F 25.6 °F 35.1 °F 97% 29.79 in 7.0 mi North 18.4 mph - 0.00 in Rain Light Rain
2:56 AM 36.0 °F 25.6 °F 34.0 °F 93% 29.81 in 7.0 mi North 18.4 mph - 0.00 in   Overcast
3:56 AM 36.0 °F 25.0 °F 34.0 °F 93% 29.81 in 10.0 mi North 20.7 mph 26.5 mph 0.00 in   Overcast
4:56 AM 35.1 °F 24.5 °F 34.0 °F 96% 29.84 in 5.0 mi NNW 18.4 mph 25.3 mph 0.00 in Rain Light Rain
5:56 AM 36.0 °F 26.3 °F 34.0 °F 93% 29.84 in 10.0 mi North 16.1 mph 25.3 mph 0.00 in   Overcast
6:32 AM 35.6 °F 24.5 °F 33.8 °F 93% 29.82 in 10.0 mi North 20.7 mph 26.5 mph N/A   Overcast
6:56 AM 36.0 °F 25.0 °F 33.1 °F 89% 29.87 in 10.0 mi North 20.7 mph 32.2 mph N/A   Overcast
7:56 AM 37.0 °F 26.4 °F 34.0 °F 89% 29.89 in 10.0 mi NNW 20.7 mph 27.6 mph N/A   Overcast
8:56 AM 37.9 °F 26.8 °F 34.0 °F 86% 29.90 in 10.0 mi North 24.2 mph 31.1 mph N/A   Overcast
9:36 AM 39.2 °F 28.7 °F 33.8 °F 81% 29.87 in 10.0 mi North 23.0 mph 27.6 mph N/A   Overcast
9:56 AM 39.9 °F 28.8 °F 34.0 °F 79% 29.91 in 10.0 mi North 27.6 mph 32.2 mph N/A   Overcast
10:56 AM 42.1 °F 32.1 °F 34.0 °F 73% 29.94 in 10.0 mi North 25.3 mph 32.2 mph N/A   Overcast
11:56 AM 43.0 °F 33.8 °F 35.1 °F 74% 29.95 in 10.0 mi North 23.0 mph 28.8 mph N/A   Overcast
12:56 PM 45.0 °F 37.4 °F 35.1 °F 68% 29.98 in 10.0 mi North 18.4 mph 27.6 mph N/A   Overcast
1:35 PM 46.4 °F 38.7 °F 35.6 °F 66% 29.97 in 10.0 mi North 20.7 mph 26.5 mph N/A   Overcast
1:43 PM 46.4 °F 38.7 °F 35.6 °F 66% 29.98 in 10.0 mi North 20.7 mph 26.5 mph N/A   Overcast
1:51 PM 46.4 °F 38.3 °F 35.6 °F 66% 29.98 in 10.0 mi North 23.0 mph 29.9 mph N/A   Overcast
1:56 PM 48.0 °F - 36.0 °F 63% 30.01 in 10.0 mi North 20.7 mph 29.9 mph N/A   Overcast
2:56 PM 50.0 °F - 36.0 °F 59% 30.01 in 10.0 mi North 23.0 mph 27.6 mph N/A   Overcast
3:56 PM 51.1 °F - 36.0 °F 56% 29.99 in 10.0 mi North 24.2 mph 27.6 mph N/A   Overcast
4:56 PM 51.1 °F - 37.0 °F 59% 30.01 in 10.0 mi North 19.6 mph 23.0 mph N/A   Overcast
5:56 PM 51.1 °F - 37.0 °F 59% 30.03 in 10.0 mi NNW 12.7 mph - N/A   Overcast
6:56 PM 50.0 °F - 37.9 °F 63% 30.03 in 10.0 mi NNW 12.7 mph - N/A   Overcast
7:56 PM 50.0 °F - 37.9 °F 63% 30.03 in 10.0 mi NNW 10.4 mph - N/A   Overcast
8:56 PM 48.0 °F - 37.9 °F 68% 30.05 in 10.0 mi NW 8.1 mph - N/A   Overcast
9:56 PM 46.9 °F - 37.9 °F 71% 30.07 in 10.0 mi NNW 8.1 mph - N/A   Mostly Cloudy
10:56 PM 46.0 °F 43.1 °F 37.9 °F 73% 30.09 in 10.0 mi NW 5.8 mph - N/A   Clear